(347349) = 2004 AA22 = 2009 UA141 = 2012 QP20

Discovered at Kitt Peak on 2004-01-15 by Spacewatch.

Orbit

Orbit type: Main Belt

Note: WebGL enabled browser required.

epoch2023-02-25.0
epoch JD2460000.5
perihelion date2022-05-25.81896
perihelion JD2459725.31896
argument of perihelion (°)39.35266
ascending node (°)308.41909
inclination (°)1.32354
eccentricity0.2079447
perihelion distance (AU)1.7285965
Tisserand w.r.t. Jupiter3.7
ΔV w.r.t. Earth (km/sec)8.1
semimajor axis (AU)2.1824189
mean anomaly (°)84.12308
mean daily motion (°/day)0.30570090
aphelion distance (AU)2.636
period (years)3.22
P-vector [x]0.97717904
P-vector [y]-0.20025124
P-vector [z]-0.07085594
Q-vector [x]0.21164503
Q-vector [y]0.88944362
Q-vector [z]0.40508818
absolute magnitude18.08
phase slope0.15
uncertainty0
referenceMPO 730710
observations used205
oppositions12
arc length (days)9563
first opposition used1996
last opposition used2022
residual rms (arc-secs)0.82
perturbers coarse indicatorM-v
perturbers precise indicator003Ek
first observation date used1996-10-18.0
last observation date used2022-12-24.0
computer nameMPCLINUX
JD of orbit computation2456760.817391
perihelion JD uncertainty (days)3.7251E-05
argument of perihelion uncertainty (°)2.3812E-04
ascending node uncertainty (°)2.3768E-04
inclination uncertainty (°)5.7335E-06
eccentricity uncertainty 7.6705E-08
perihelion distance uncertainty (AU)1.7044E-07
Minimum Orbit Intersection Distances (in AU)
for orbit epoch: 2460000.5, reference: E2023-B58
Mercury1.34547
Venus1.00473
Earth0.7205
Mars0.34959
Jupiter2.77167
Saturn6.66028
Uranus15.8068
Neptune27.8617

Observations

212 total observations over interval: 1996 10 18.30663 – 2022 12 24.241385
These data are available for download (format description).

Date (UT) J2000 RA J2000 Dec Magn Location Ref
1996 10 18.30663 01 05 38.35 +10 05 17.6   691 – Steward Observatory, Kitt Peak-Spacewatch MPS 432001
1996 10 18.32804 01 05 37.18 +10 05 10.5 19.3 V 691 – Steward Observatory, Kitt Peak-Spacewatch MPS 432001
1996 10 18.34983 01 05 35.97 +10 05 03.5   691 – Steward Observatory, Kitt Peak-Spacewatch MPS 432001
2004 01 15.45821 08 15 38.24 +20 11 28.2 22.1 V 691 – Steward Observatory, Kitt Peak-Spacewatch MPS 109927
2004 01 15.48503 08 15 36.29 +20 11 33.3 21.7 V 691 – Steward Observatory, Kitt Peak-Spacewatch MPS 109927
2004 01 15.51228 08 15 34.28 +20 11 38.3 21.7 V 691 – Steward Observatory, Kitt Peak-Spacewatch MPS 109927
2004 01 27.37339 08 01 22.13 +20 47 57.6 21.9 V 691 – Steward Observatory, Kitt Peak-Spacewatch MPS 109927
2004 01 27.40456 08 01 19.82 +20 48 02.5 22.4 V 691 – Steward Observatory, Kitt Peak-Spacewatch MPS 109927
2004 01 27.43334 08 01 17.82 +20 48 06.9 22.2 V 691 – Steward Observatory, Kitt Peak-Spacewatch MPS 109927
2005 05 16.29060 14 21 16.27 -16 28 04.2 20.7 R G96 – Mt. Lemmon Survey MPS 432001
2005 05 16.29851 14 21 15.76 -16 28 01.9 20.9 R G96 – Mt. Lemmon Survey MPS 432001
2005 05 16.30644 14 21 15.27 -16 27 59.0 20.4 R G96 – Mt. Lemmon Survey MPS 432001
2005 05 16.31434 14 21 14.77 -16 27 56.9 20.8 R G96 – Mt. Lemmon Survey MPS 432001
2009 10 22.36095 03 13 20.89 +20 47 43.6 19.4 V 703 – Catalina Sky Survey MPS 306782
2009 10 22.36852 03 13 20.56 +20 47 42.2 19.9 V 703 – Catalina Sky Survey MPS 306782
2009 10 22.37626 03 13 19.99 +20 47 40.7 19.0 V 703 – Catalina Sky Survey MPS 306782
2009 10 22.38397 03 13 19.56 +20 47 39.3 19.3 V 703 – Catalina Sky Survey MPS 306782
2009 11 08.35896 02 55 44.72 +19 37 40.9 18.8 V G96 – Mt. Lemmon Survey MPS 306782
2009 11 08.36470 02 55 44.32 +19 37 39.1 18.9 V G96 – Mt. Lemmon Survey MPS 306782
2009 11 08.37052 02 55 43.93 +19 37 37.4 18.9 V G96 – Mt. Lemmon Survey MPS 306782
2009 11 08.37619 02 55 43.53 +19 37 35.7 18.9 V G96 – Mt. Lemmon Survey MPS 306782
2009 11 08.43425 02 55 39.61 +19 37 17.5 19.0 V G96 – Mt. Lemmon Survey MPS 306782
2009 11 08.43757 02 55 39.32 +19 37 15.9 18.8 V G96 – Mt. Lemmon Survey MPS 306782
2009 11 08.44090 02 55 39.14 +19 37 15.6 19.2 V G96 – Mt. Lemmon Survey MPS 306782
2009 11 08.44415 02 55 38.92 +19 37 14.4 19.0 V G96 – Mt. Lemmon Survey MPS 306782
2009 11 22.20510 02 42 03.96 +18 27 57.9 19.9 V 291 – LPL/Spacewatch II MPS 432001
2009 11 22.20908 02 42 03.75 +18 27 56.6 20.0 V 291 – LPL/Spacewatch II MPS 432001
2009 11 22.21304 02 42 03.55 +18 27 55.6 20.0 V 291 – LPL/Spacewatch II MPS 432001
2009 11 22.28901 02 41 59.49 +18 27 33.9 19.7 V G96 – Mt. Lemmon Survey MPS 432001
2009 11 22.29490 02 41 59.17 +18 27 32.0 19.7 V G96 – Mt. Lemmon Survey MPS 432001
2009 11 22.30064 02 41 58.88 +18 27 30.4 19.7 V G96 – Mt. Lemmon Survey MPS 432001
2011 03 14.38492 11 40 21.82 +00 27 38.8 21.1 V G96 – Mt. Lemmon Survey MPS 432001
2011 03 14.39295 11 40 21.32 +00 27 41.4 21.4 V G96 – Mt. Lemmon Survey MPS 432001
2011 03 14.40104 11 40 20.78 +00 27 44.5 21.1 V G96 – Mt. Lemmon Survey MPS 432001
2011 03 14.40913 11 40 20.28 +00 27 47.5 21.5 V G96 – Mt. Lemmon Survey MPS 432001
2011 03 29.22309 11 25 41.30 +01 58 32.3 21.4 V G96 – Mt. Lemmon Survey MPS 432001
2011 03 29.22826 11 25 41.05 +01 58 34.7 22.6 V G96 – Mt. Lemmon Survey MPS 432001
2011 03 29.23347 11 25 40.76 +01 58 36.3 22.3 V G96 – Mt. Lemmon Survey MPS 432001
2011 03 29.23866 11 25 40.44 +01 58 38.1 22.1 V G96 – Mt. Lemmon Survey MPS 432001
2012 08 09.28008 22 51 49.52 -06 11 29.8 19.9 G G45 – Space Surveillance Telescope, Atom Site MPS 1609869
2012 08 09.32032 22 51 48.29 -06 11 32.7 19.9 G G45 – Space Surveillance Telescope, Atom Site MPS 1609869
2012 08 09.34149 22 51 47.58 -06 11 33.8 19.3 G G45 – Space Surveillance Telescope, Atom Site MPS 1609869
2012 08 09.38719 22 51 46.20 -06 11 36.1 19.6 G G45 – Space Surveillance Telescope, Atom Site MPS 1609869
2012 08 09.42966 22 51 44.96 -06 11 38.9 19.5 G G45 – Space Surveillance Telescope, Atom Site MPS 1609869
2012 08 11.61213 22 50 42.57 -06 13 53.5 19.2 V E12 – Siding Spring Survey MPS 432001
2012 08 11.62498 22 50 42.18 -06 13 54.1 19.4 V E12 – Siding Spring Survey MPS 432001
2012 08 11.63787 22 50 41.64 -06 13 55.9 19.1 V E12 – Siding Spring Survey MPS 432001
2012 08 11.65060 22 50 41.31 -06 13 56.9 19.2 V E12 – Siding Spring Survey MPS 432001
2012 08 20.92179 22 44 47.44 -06 33 33.0 18.7 V J75 – OAM Observatory, La Sagra MPS 430216
2012 08 20.93137 22 44 47.02 -06 33 34.7 18.9 V J75 – OAM Observatory, La Sagra MPS 430216
2012 08 20.94096 22 44 46.50 -06 33 36.8 18.5 V J75 – OAM Observatory, La Sagra MPS 430216
2012 08 22.94289 22 43 15.31 -06 39 21.6 18.8 V D03 – Rantiga Osservatorio, Tincana MPS 430216
2012 08 22.95015 22 43 14.94 -06 39 22.8 18.9 V D03 – Rantiga Osservatorio, Tincana MPS 430216
2012 08 22.95737 22 43 14.59 -06 39 23.9 18.8 V D03 – Rantiga Osservatorio, Tincana MPS 430216
2012 08 22.96461 22 43 14.22 -06 39 25.1 18.9 V D03 – Rantiga Osservatorio, Tincana MPS 430216
2012 08 22.99515 22 43 12.67 -06 39 31.3 18.2 R 106 – Crni Vrh MPS 430216
2012 08 23.00817 22 43 12.11 -06 39 33.3 19.1 R 106 – Crni Vrh MPS 430216
2012 08 23.02111 22 43 11.35 -06 39 35.7 18.4 R 106 – Crni Vrh MPS 430216
2012 08 23.03412 22 43 10.73 -06 39 37.8 18.4 R 106 – Crni Vrh MPS 430216
2012 08 23.90510 22 42 30.36 -06 42 15.5 18.8 V D03 – Rantiga Osservatorio, Tincana MPS 430216
2012 08 23.91235 22 42 29.96 -06 42 17.3 18.7 V D03 – Rantiga Osservatorio, Tincana MPS 430216
2012 08 23.91957 22 42 29.57 -06 42 18.6 19.0 V D03 – Rantiga Osservatorio, Tincana MPS 430216
2012 08 23.92684 22 42 29.23 -06 42 19.5 19.3 V D03 – Rantiga Osservatorio, Tincana MPS 430216
2012 08 24.27018 22 42 12.92 -06 43 22.6 19.1 V 703 – Catalina Sky Survey MPS 430216
2012 08 24.27599 22 42 12.74 -06 43 22.8 19.0 V 703 – Catalina Sky Survey MPS 430216
2012 08 24.28187 22 42 12.34 -06 43 23.6 19.4 V 703 – Catalina Sky Survey MPS 430216
2012 08 24.28779 22 42 12.06 -06 43 23.2 19.2 V 703 – Catalina Sky Survey MPS 430216
2012 09 09.08891 22 29 21.08 -07 37 06.5 17.5 K W91 – VHS-VISTA, Cerro Paranal MPS 678721
2012 09 09.09165 22 29 20.97 -07 37 07.1 17.6 K W91 – VHS-VISTA, Cerro Paranal MPS 678721
2012 09 09.09323 22 29 20.88 -07 37 07.3 17.8 J W91 – VHS-VISTA, Cerro Paranal MPS 678721
2012 09 09.09577 22 29 20.76 -07 37 07.8 17.9 J W91 – VHS-VISTA, Cerro Paranal MPS 678721
2012 09 09.09744 22 29 20.67 -07 37 08.2 18.3 Y W91 – VHS-VISTA, Cerro Paranal MPS 678721
2012 09 09.10253 22 29 20.43 -07 37 09.2 18.4 Y W91 – VHS-VISTA, Cerro Paranal MPS 678721
2012 09 13.16591 22 26 24.00 -07 50 16.6 18.9 V 703 – Catalina Sky Survey MPS 432001
2012 09 13.17208 22 26 23.74 -07 50 18.1 18.7 V 703 – Catalina Sky Survey MPS 432001
2012 09 13.17821 22 26 23.46 -07 50 18.9 18.6 V 703 – Catalina Sky Survey MPS 432001
2012 09 13.18442 22 26 23.20 -07 50 20.5 18.8 V 703 – Catalina Sky Survey MPS 432001
2012 09 13.20689 22 26 22.20 -07 50 23.4 18.7 V G96 – Mt. Lemmon Survey MPS 432001
2012 09 13.21391 22 26 21.84 -07 50 25.6 19.0 V G96 – Mt. Lemmon Survey MPS 432001
2012 09 13.22090 22 26 21.55 -07 50 27.0 19.0 V G96 – Mt. Lemmon Survey MPS 432001
2012 09 13.93618 22 25 52.74 -07 52 33.6 18.9 R J04 – ESA Optical Ground Station, Tenerife MPS 431380
2012 09 13.94556 22 25 52.33 -07 52 35.3 18.9 R J04 – ESA Optical Ground Station, Tenerife MPS 431380
2012 09 13.95494 22 25 51.91 -07 52 36.9 18.8 R J04 – ESA Optical Ground Station, Tenerife MPS 431380
2012 09 15.09481 22 25 06.84 -07 55 52.9 17.7 R J04 – ESA Optical Ground Station, Tenerife MPS 432001
2012 09 15.10421 22 25 06.47 -07 55 54.9 18.5 R J04 – ESA Optical Ground Station, Tenerife MPS 432001
2012 09 15.11362 22 25 06.08 -07 55 56.5 18.6 R J04 – ESA Optical Ground Station, Tenerife MPS 432001
2012 09 23.17434 22 20 56.58 -08 14 20.0 19.2 V G96 – Mt. Lemmon Survey MPS 433407
2012 09 23.17834 22 20 56.47 -08 14 20.0 19.1 V G96 – Mt. Lemmon Survey MPS 433407
2012 09 23.18231 22 20 56.36 -08 14 20.6 19.1 V G96 – Mt. Lemmon Survey MPS 433407
2012 09 23.18632 22 20 56.25 -08 14 20.9 19.2 V G96 – Mt. Lemmon Survey MPS 433407
2012 10 21.12248 22 24 34.66 -07 50 48.5 20.2 V G96 – Mt. Lemmon Survey MPS 437999
